This is the latest recevied weather packets stored in our database for station/object OK1FET-4. If no packets are shown the sender has not sent any weather packets the latest 10 day(s).
| Time | Temp. | Humidity | Pressure | Rain* | Wind** | Luminosity | Snow |
|---|---|---|---|---|---|---|---|
| 1778150141 | 16.11° C | 55% | 1012.6 hPa | - | - | - | - |
| 1778149840 | 17.78° C | 57% | 1012.5 hPa | - | - | - | - |
| 1778149840 | 17.78° C | 57% | 1012.5 hPa | - | - | - | - |
| 1778149539 | 16.67° C | 59% | 1012.7 hPa | - | - | - | - |
| 1778149539 | 16.67° C | 59% | 1012.7 hPa | - | - | - | - |
| 1778149539 | 16.67° C | 59% | 1012.7 hPa | - | - | - | - |
| 1778149239 | 15.56° C | 58% | 1012.7 hPa | - | - | - | - |
| 1778149239 | 15.56° C | 58% | 1012.7 hPa | - | - | - | - |
| 1778149239 | 15.56° C | 58% | 1012.7 hPa | - | - | - | - |
| 1778148938 | 15° C | 59% | 1012.6 hPa | - | - | - | - |
| 1778148938 | 15° C | 59% | 1012.6 hPa | - | - | - | - |
| 1778148638 | 16.67° C | 60% | 1012.5 hPa | - | - | - | - |
| 1778148638 | 16.67° C | 60% | 1012.5 hPa | - | - | - | - |
| 1778148337 | 16.67° C | 60% | 1012.5 hPa | - | - | - | - |
| 1778148337 | 16.67° C | 60% | 1012.5 hPa | - | - | - | - |
| 1778148036 | 16.11° C | 61% | 1012.3 hPa | - | - | - | - |
| 1778148036 | 16.11° C | 61% | 1012.3 hPa | - | - | - | - |
| 1778147736 | 15.56° C | 61% | 1012.3 hPa | - | - | - | - |
| 1778147736 | 15.56° C | 61% | 1012.3 hPa | - | - | - | - |
| 1778147436 | 14.44° C | 64% | 1012.6 hPa | - | - | - | - |
| 1778147436 | 14.44° C | 64% | 1012.6 hPa | - | - | - | - |
| 1778147135 | 14.44° C | 67% | 1012.4 hPa | - | - | - | - |
| 1778147135 | 14.44° C | 67% | 1012.4 hPa | - | - | - | - |
| 1778146835 | 14.44° C | 64% | 1012.3 hPa | - | - | - | - |
| 1778146834 | 14.44° C | 64% | 1012.3 hPa | - | - | - | - |
* Rain since midnight (hover to see other rain measurements)
** Current wind speed in m/s (hover to see current wind gust speed)